Location: Sungai Bunut
(2.6333°N, 113.7333°E)
Time: 20:02:20
(UTC+00:00)

Cosmos 1805 - Pass Details

Date: 16 October 2021
Orbit: 523 x 529 km, 82.5° (Epoch: 08 December)

Event Time Altitude Azimuth Distance (km) Brightness Sun altitude
Exits shadow 21:05:17 29° 249° (WSW) 983 4.1 -16.5°
Drops below altitude 10° 21:08:09 10° 204° (SSW) 1,772 5.8 -15.8°
Sets 21:10:28 0° 193° (SSW) 2,663 6.8 -15.2°
